When you browse on this site, cookies collect data to enhance your experience and personalize the content and advertising you see.
Visit our Privacy Policy to learn more. By continuing to use the site, you agree to this use of cookies and data.
  • In Österreich
  • Länderverzeichnis
  • Für 7 Tage
  • Wassertemperatur
  • Satellitenkarten
  • Wetterkarte
  • News
  • Widgets
  • user-avatar
    Anmelden

    Stündliche Wetter Andora

    Heute, 23 Januar, Mittwoch

    Zeit Temperatur Niederschläge Wind Luftdruck Luftfeuchtigkeit
    00:00 -7°C° 0 mm 2 m/S 610 mmHg 84%
    01:00 -6°C° 0.5 mm 1 m/S 610 mmHg 85%
    02:00 -4°C° 0.5 mm 1 m/S 610 mmHg 85%
    03:00 -3°C° 0.5 mm 1 m/S 609 mmHg 86%
    04:00 -3°C° 1.1 mm 1 m/S 609 mmHg 88%
    05:00 -3°C° 1.1 mm 1 m/S 609 mmHg 90%
    06:00 -3°C° 1.1 mm 1 m/S 608 mmHg 91%
    07:00 -2°C° 1.6 mm 1 m/S 608 mmHg 92%
    08:00 -2°C° 1.6 mm 1 m/S 607 mmHg 92%
    09:00 -2°C° 1.6 mm 1 m/S 607 mmHg 93%
    10:00 -4°C° 2.4 mm 2 m/S 607 mmHg 93%
    11:00 -5°C° 2.4 mm 3 m/S 607 mmHg 92%
    12:00 -4°C° 2.4 mm 4 m/S 607 mmHg 92%
    13:00 -5°C° 1.8 mm 4 m/S 607 mmHg 93%
    14:00 -7°C° 1.8 mm 4 m/S 607 mmHg 94%
    15:00 -7°C° 1.8 mm 4 m/S 607 mmHg 94%
    16:00 -8°C° 1.8 mm 5 m/S 607 mmHg 95%
    17:00 -8°C° 1.8 mm 5 m/S 607 mmHg 95%
    18:00 -10°C° 1.8 mm 6 m/S 607 mmHg 96%
    19:00 -10°C° 1.1 mm 6 m/S 607 mmHg 95%
    20:00 -11°C° 1.1 mm 6 m/S 608 mmHg 95%
    21:00 -12°C° 1.1 mm 7 m/S 608 mmHg 94%
    22:00 -13°C° 0.6 mm 7 m/S 608 mmHg 93%
    23:00 -13°C° 0.6 mm 7 m/S 608 mmHg 93%

    Morgen, 24 Januar, Donnerstag

    Zeit Temperatur Niederschläge Wind Luftdruck Luftfeuchtigkeit
    00:00 -13°C° 0.6 mm 7 m/S 608 mmHg 92%
    01:00 -13°C° 0.5 mm 7 m/S 609 mmHg 92%
    02:00 -14°C° 0.5 mm 7 m/S 609 mmHg 91%
    03:00 -14°C° 0.5 mm 7 m/S 609 mmHg 91%
    04:00 -14°C° 0.5 mm 6 m/S 609 mmHg 91%
    05:00 -13°C° 0.5 mm 5 m/S 610 mmHg 91%
    06:00 -12°C° 0.5 mm 4 m/S 610 mmHg 91%
    07:00 -12°C° 0.3 mm 4 m/S 611 mmHg 90%
    08:00 -12°C° 0.3 mm 4 m/S 611 mmHg 89%
    09:00 -11°C° 0.3 mm 4 m/S 612 mmHg 89%
    10:00 -11°C° 0.2 mm 4 m/S 612 mmHg 87%
    11:00 -10°C° 0.2 mm 4 m/S 613 mmHg 85%
    12:00 -11°C° 0.2 mm 5 m/S 613 mmHg 84%
    13:00 -11°C° 0.2 mm 5 m/S 613 mmHg 84%
    14:00 -11°C° 0.2 mm 5 m/S 613 mmHg 85%
    15:00 -11°C° 0.2 mm 5 m/S 613 mmHg 85%
    16:00 -11°C° 0.1 mm 4 m/S 613 mmHg 86%
    17:00 -12°C° 0.1 mm 4 m/S 613 mmHg 87%
    18:00 -14°C° 0.1 mm 4 m/S 613 mmHg 88%
    19:00 -14°C° 0 mm 4 m/S 614 mmHg 87%
    20:00 -14°C° 0 mm 4 m/S 614 mmHg 86%
    21:00 -15°C° 0 mm 4 m/S 614 mmHg 85%
    22:00 -15°C° 0 mm 4 m/S 614 mmHg 85%
    23:00 -15°C° 0 mm 4 m/S 615 mmHg 85%

    übermorgen, 25 Januar, Freitag

    Zeit Temperatur Niederschläge Wind Luftdruck Luftfeuchtigkeit
    00:00 -15°C° 0 mm 5 m/S 615 mmHg 84%
    01:00 -14°C° 0 mm 4 m/S 615 mmHg 83%
    02:00 -14°C° 0 mm 4 m/S 615 mmHg 81%
    03:00 -14°C° 0 mm 4 m/S 615 mmHg 79%
    04:00 -11°C° 0 mm 4 m/S 616 mmHg 82%
    05:00 -9°C° 0 mm 4 m/S 616 mmHg 84%
    06:00 -8°C° 0 mm 4 m/S 617 mmHg 87%
    07:00 -6°C° 0.3 mm 5 m/S 617 mmHg 88%
    08:00 -5°C° 0.3 mm 5 m/S 618 mmHg 89%
    09:00 -2°C° 0.3 mm 5 m/S 618 mmHg 90%
    10:00 -2°C° 0.7 mm 5 m/S 618 mmHg 90%
    11:00 -3°C° 0.7 mm 6 m/S 618 mmHg 90%
    12:00 -2°C° 0.7 mm 6 m/S 618 mmHg 91%
    13:00 -2°C° 0.6 mm 6 m/S 618 mmHg 90%
    14:00 -2°C° 0.6 mm 6 m/S 618 mmHg 90%
    15:00 -2°C° 0.6 mm 6 m/S 618 mmHg 89%
    16:00 -3°C° 0.4 mm 6 m/S 618 mmHg 89%
    17:00 -3°C° 0.4 mm 6 m/S 618 mmHg 89%
    18:00 -3°C° 0.4 mm 7 m/S 619 mmHg 88%
    19:00 -3°C° 0.3 mm 7 m/S 619 mmHg 88%
    20:00 -4°C° 0.3 mm 7 m/S 620 mmHg 88%
    21:00 -4°C° 0.3 mm 7 m/S 620 mmHg 88%
    22:00 -4°C° 0 mm 7 m/S 620 mmHg 89%
    23:00 -4°C° 0 mm 6 m/S 620 mmHg 89%

    26 Januar, Samstag

    Zeit Temperatur Niederschläge Wind Luftdruck Luftfeuchtigkeit
    00:00 -5°C° 0 mm 6 m/S 621 mmHg 89%
    01:00 -5°C° 0 mm 5 m/S 621 mmHg 89%
    02:00 -5°C° 0 mm 5 m/S 621 mmHg 89%
    03:00 -5°C° 0 mm 5 m/S 621 mmHg 89%
    04:00 -5°C° 0 mm 4 m/S 621 mmHg 90%
    05:00 -5°C° 0 mm 4 m/S 621 mmHg 91%
    06:00 -5°C° 0 mm 4 m/S 621 mmHg 92%
    07:00 -4°C° 0 mm 3 m/S 621 mmHg 92%
    08:00 -4°C° 0 mm 3 m/S 622 mmHg 91%
    09:00 -2°C° 0 mm 3 m/S 622 mmHg 91%
    10:00 -1°C° 0 mm 3 m/S 622 mmHg 92%
    11:00 0°C° 0 mm 3 m/S 622 mmHg 93%
    12:00 0°C° 0 mm 3 m/S 623 mmHg 94%
    13:00 0°C° 0 mm 3 m/S 622 mmHg 93%
    14:00 +1°C° 0 mm 2 m/S 622 mmHg 93%
    15:00 +1°C° 0 mm 2 m/S 621 mmHg 92%
    16:00 -2°C° 0 mm 2 m/S 620 mmHg 92%
    17:00 -4°C° 0 mm 2 m/S 620 mmHg 91%
    18:00 -5°C° 0 mm 2 m/S 619 mmHg 91%
    19:00 -6°C° 0 mm 2 m/S 619 mmHg 90%
    20:00 -6°C° 0 mm 2 m/S 618 mmHg 89%
    21:00 -7°C° 0 mm 2 m/S 618 mmHg 89%
    22:00 -7°C° 0 mm 2 m/S 618 mmHg 88%
    23:00 -7°C° 0 mm 2 m/S 618 mmHg 88%

    27 Januar, Sonntag

    Zeit Temperatur Niederschläge Wind Luftdruck Luftfeuchtigkeit
    00:00 -7°C° 0 mm 2 m/S 617 mmHg 87%
    01:00 -6°C° 0 mm 2 m/S 617 mmHg 87%
    02:00 -5°C° 0 mm 2 m/S 617 mmHg 87%
    03:00 -4°C° 0 mm 2 m/S 616 mmHg 87%
    04:00 -3°C° 0.4 mm 2 m/S 617 mmHg 89%
    05:00 -2°C° 0.4 mm 2 m/S 617 mmHg 90%
    06:00 -1°C° 0.4 mm 2 m/S 617 mmHg 92%
    07:00 -1°C° 0.3 mm 3 m/S 617 mmHg 91%
    08:00 -3°C° 0.3 mm 4 m/S 617 mmHg 91%
    09:00 -4°C° 0.3 mm 5 m/S 617 mmHg 90%
    10:00 -4°C° 0.1 mm 4 m/S 617 mmHg 87%
    11:00 -5°C° 0.1 mm 4 m/S 617 mmHg 85%
    12:00 -5°C° 0.1 mm 4 m/S 617 mmHg 82%
    13:00 -7°C° 0 mm 4 m/S 616 mmHg 82%
    14:00 -7°C° 0 mm 4 m/S 616 mmHg 82%
    15:00 -8°C° 0 mm 4 m/S 615 mmHg 81%
    16:00 -9°C° 0 mm 4 m/S 615 mmHg 84%
    17:00 -10°C° 0 mm 4 m/S 615 mmHg 87%
    18:00 -11°C° 0 mm 4 m/S 615 mmHg 90%
    19:00 -11°C° 0.1 mm 4 m/S 615 mmHg 90%
    20:00 -11°C° 0.1 mm 4 m/S 615 mmHg 90%
    21:00 -12°C° 0.1 mm 4 m/S 615 mmHg 89%
    22:00 -11°C° 0.3 mm 4 m/S 615 mmHg 90%
    23:00 -11°C° 0.3 mm 4 m/S 615 mmHg 90%

    28 Januar, Montag

    Zeit Temperatur Niederschläge Wind Luftdruck Luftfeuchtigkeit
    00:00 -11°C° 0.3 mm 4 m/S 615 mmHg 91%
    01:00 -11°C° 0.3 mm 4 m/S 615 mmHg 91%
    02:00 -11°C° 0.3 mm 4 m/S 614 mmHg 90%
    03:00 -11°C° 0.3 mm 4 m/S 614 mmHg 90%
    04:00 -11°C° 0.3 mm 4 m/S 614 mmHg 90%
    05:00 -11°C° 0.3 mm 4 m/S 614 mmHg 90%
    06:00 -12°C° 0.3 mm 4 m/S 614 mmHg 90%
    07:00 -11°C° 0.3 mm 4 m/S 614 mmHg 88%
    08:00 -12°C° 0.3 mm 5 m/S 615 mmHg 86%
    09:00 -11°C° 0.3 mm 6 m/S 615 mmHg 85%
    10:00 -11°C° 0.3 mm 6 m/S 615 mmHg 84%
    11:00 -12°C° 0.3 mm 7 m/S 615 mmHg 83%
    12:00 -12°C° 0.3 mm 7 m/S 615 mmHg 82%
    13:00 -12°C° 0.4 mm 7 m/S 615 mmHg 82%
    14:00 -12°C° 0.4 mm 7 m/S 615 mmHg 83%
    15:00 -12°C° 0.4 mm 7 m/S 614 mmHg 84%
    16:00 -11°C° 0.9 mm 6 m/S 614 mmHg 86%
    17:00 -11°C° 0.9 mm 6 m/S 615 mmHg 87%
    18:00 -11°C° 0.9 mm 5 m/S 615 mmHg 89%
    19:00 -11°C° 0.5 mm 5 m/S 615 mmHg 89%
    20:00 -12°C° 0.5 mm 5 m/S 615 mmHg 89%
    21:00 -13°C° 0.5 mm 5 m/S 615 mmHg 89%
    22:00 -13°C° 0.2 mm 5 m/S 615 mmHg 88%
    23:00 -13°C° 0.2 mm 5 m/S 615 mmHg 87%
    Mehr zeigen